When you browse on this site, cookies collect data to enhance your experience and personalize the content and advertising you see.
Visit our Privacy Policy to learn more. By continuing to use the site, you agree to this use of cookies and data.
  • In United Kingdom
  • List of Countries
  • For 7 days
  • Water Temperature
  • Weather Map
  • Weather Widgets
  • user-avatar
    Login

    Hourly Weather Koeln

    Today, 16 December, Monday

    Time Temperature Precipitation Wind Pressure Humidity
    00:00 +6°C° 0 mm 2 mps 751 mmHg 86%
    01:00 +6°C° 0 mm 2 mps 751 mmHg 87%
    02:00 +5°C° 0 mm 3 mps 750 mmHg 88%
    03:00 +5°C° 0 mm 3 mps 750 mmHg 89%
    04:00 +7°C° 0.1 mm 3 mps 750 mmHg 90%
    05:00 +7°C° 0.1 mm 3 mps 750 mmHg 92%
    06:00 +7°C° 0.1 mm 3 mps 749 mmHg 93%
    07:00 +7°C° 0.2 mm 2 mps 749 mmHg 92%
    08:00 +8°C° 0.2 mm 2 mps 749 mmHg 92%
    09:00 +8°C° 0.2 mm 2 mps 750 mmHg 92%
    10:00 +8°C° 0.6 mm 2 mps 749 mmHg 92%
    11:00 +8°C° 0.6 mm 2 mps 749 mmHg 92%
    12:00 +9°C° 0.6 mm 2 mps 749 mmHg 93%
    13:00 +9°C° 0.1 mm 2 mps 749 mmHg 91%
    14:00 +9°C° 0.1 mm 2 mps 749 mmHg 90%
    15:00 +9°C° 0.1 mm 2 mps 749 mmHg 89%
    16:00 +9°C° 0 mm 3 mps 749 mmHg 88%
    17:00 +9°C° 0 mm 3 mps 748 mmHg 88%
    18:00 +9°C° 0 mm 3 mps 748 mmHg 88%
    19:00 +9°C° 0 mm 3 mps 748 mmHg 86%
    20:00 +9°C° 0 mm 3 mps 748 mmHg 85%
    21:00 +9°C° 0 mm 3 mps 748 mmHg 83%
    22:00 +8°C° 0 mm 4 mps 748 mmHg 81%
    23:00 +8°C° 0 mm 4 mps 747 mmHg 79%

    Tomorrow, 17 December, Tuesday

    Time Temperature Precipitation Wind Pressure Humidity
    00:00 +8°C° 0 mm 4 mps 747 mmHg 78%
    01:00 +10°C° 0 mm 4 mps 747 mmHg 76%
    02:00 +10°C° 0 mm 4 mps 747 mmHg 74%
    03:00 +10°C° 0 mm 4 mps 747 mmHg 72%
    04:00 +10°C° 0 mm 4 mps 747 mmHg 71%
    05:00 +10°C° 0 mm 4 mps 747 mmHg 69%
    06:00 +11°C° 0 mm 4 mps 747 mmHg 68%
    07:00 +11°C° 0 mm 4 mps 747 mmHg 67%
    08:00 +11°C° 0 mm 4 mps 748 mmHg 66%
    09:00 +11°C° 0 mm 4 mps 748 mmHg 65%
    10:00 +12°C° 0 mm 4 mps 748 mmHg 65%
    11:00 +12°C° 0 mm 5 mps 748 mmHg 65%
    12:00 +13°C° 0 mm 5 mps 748 mmHg 64%
    13:00 +13°C° 0 mm 4 mps 748 mmHg 65%
    14:00 +12°C° 0 mm 4 mps 748 mmHg 66%
    15:00 +12°C° 0 mm 3 mps 748 mmHg 68%
    16:00 +12°C° 0 mm 4 mps 748 mmHg 69%
    17:00 +12°C° 0 mm 4 mps 748 mmHg 70%
    18:00 +10°C° 0 mm 5 mps 748 mmHg 71%
    19:00 +10°C° 0.1 mm 5 mps 748 mmHg 70%
    20:00 +10°C° 0.1 mm 5 mps 749 mmHg 69%
    21:00 +10°C° 0.1 mm 5 mps 749 mmHg 68%
    22:00 +10°C° 0 mm 5 mps 749 mmHg 68%
    23:00 +10°C° 0 mm 5 mps 749 mmHg 67%

    Day after tomorrow, 18 December, Wednesday

    Time Temperature Precipitation Wind Pressure Humidity
    00:00 +9°C° 0 mm 5 mps 748 mmHg 66%
    01:00 +9°C° 0 mm 5 mps 749 mmHg 68%
    02:00 +10°C° 0 mm 5 mps 749 mmHg 70%
    03:00 +11°C° 0 mm 4 mps 750 mmHg 71%
    04:00 +11°C° 0.2 mm 4 mps 750 mmHg 77%
    05:00 +10°C° 0.2 mm 3 mps 750 mmHg 82%
    06:00 +10°C° 0.2 mm 2 mps 751 mmHg 88%
    07:00 +10°C° 0.1 mm 2 mps 751 mmHg 89%
    08:00 +11°C° 0.1 mm 1 mps 751 mmHg 91%
    09:00 +11°C° 0.1 mm 1 mps 752 mmHg 93%
    10:00 +11°C° 0.1 mm 1 mps 752 mmHg 92%
    11:00 +11°C° 0.1 mm 1 mps 752 mmHg 92%
    12:00 +11°C° 0.1 mm 1 mps 752 mmHg 92%
    13:00 +10°C° 0.1 mm 1 mps 752 mmHg 92%
    14:00 +10°C° 0.1 mm 1 mps 752 mmHg 93%
    15:00 +10°C° 0.1 mm 1 mps 751 mmHg 94%
    16:00 +10°C° 0 mm 1 mps 751 mmHg 94%
    17:00 +10°C° 0 mm 1 mps 751 mmHg 94%
    18:00 +10°C° 0 mm 1 mps 751 mmHg 94%
    19:00 +10°C° 0.1 mm 1 mps 751 mmHg 94%
    20:00 +9°C° 0.1 mm 2 mps 751 mmHg 93%
    21:00 +10°C° 0.1 mm 2 mps 751 mmHg 92%
    22:00 +9°C° 0 mm 2 mps 750 mmHg 91%
    23:00 +9°C° 0 mm 2 mps 750 mmHg 90%

    19 December, Thursday

    Time Temperature Precipitation Wind Pressure Humidity
    00:00 +8°C° 0 mm 2 mps 750 mmHg 89%
    01:00 +8°C° 0 mm 3 mps 749 mmHg 88%
    02:00 +8°C° 0 mm 3 mps 749 mmHg 87%
    03:00 +8°C° 0 mm 4 mps 749 mmHg 85%
    04:00 +7°C° 0 mm 4 mps 748 mmHg 85%
    05:00 +7°C° 0 mm 4 mps 748 mmHg 85%
    06:00 +7°C° 0 mm 4 mps 748 mmHg 85%
    07:00 +7°C° 0 mm 4 mps 748 mmHg 83%
    08:00 +7°C° 0 mm 4 mps 748 mmHg 82%
    09:00 +7°C° 0 mm 4 mps 748 mmHg 80%
    10:00 +8°C° 0 mm 4 mps 747 mmHg 78%
    11:00 +10°C° 0 mm 4 mps 747 mmHg 76%
    12:00 +10°C° 0 mm 4 mps 747 mmHg 74%
    13:00 +10°C° 0.2 mm 3 mps 747 mmHg 76%
    14:00 +10°C° 0.2 mm 3 mps 746 mmHg 79%
    15:00 +10°C° 0.2 mm 2 mps 746 mmHg 82%
    16:00 +10°C° 0 mm 3 mps 746 mmHg 82%
    17:00 +10°C° 0 mm 3 mps 746 mmHg 81%
    18:00 +10°C° 0 mm 3 mps 745 mmHg 81%
    19:00 +9°C° 0 mm 3 mps 745 mmHg 82%
    20:00 +9°C° 0 mm 3 mps 745 mmHg 82%
    21:00 +9°C° 0 mm 3 mps 745 mmHg 82%
    22:00 +9°C° 0.1 mm 3 mps 745 mmHg 83%
    23:00 +9°C° 0.1 mm 3 mps 745 mmHg 84%

    20 December, Friday

    Time Temperature Precipitation Wind Pressure Humidity
    00:00 +8°C° 0.1 mm 3 mps 745 mmHg 85%
    01:00 +8°C° 0 mm 3 mps 744 mmHg 85%
    02:00 +8°C° 0 mm 2 mps 744 mmHg 85%
    03:00 +8°C° 0 mm 2 mps 744 mmHg 85%
    04:00 +8°C° 0.3 mm 2 mps 743 mmHg 86%
    05:00 +8°C° 0.3 mm 2 mps 743 mmHg 88%
    06:00 +8°C° 0.3 mm 2 mps 743 mmHg 89%
    07:00 +8°C° 0 mm 2 mps 743 mmHg 89%
    08:00 +8°C° 0 mm 2 mps 742 mmHg 89%
    09:00 +8°C° 0 mm 2 mps 742 mmHg 88%
    10:00 +8°C° 0 mm 2 mps 741 mmHg 86%
    11:00 +9°C° 0 mm 2 mps 740 mmHg 84%
    12:00 +9°C° 0 mm 2 mps 740 mmHg 82%
    13:00 +9°C° 0 mm 2 mps 739 mmHg 83%
    14:00 +8°C° 0 mm 2 mps 739 mmHg 85%
    15:00 +9°C° 0 mm 1 mps 738 mmHg 87%
    16:00 +9°C° 0 mm 1 mps 738 mmHg 88%
    17:00 +9°C° 0 mm 1 mps 737 mmHg 89%
    18:00 +8°C° 0 mm 1 mps 737 mmHg 90%
    19:00 +8°C° 0.8 mm 1 mps 737 mmHg 92%
    20:00 +8°C° 0.8 mm 1 mps 737 mmHg 94%
    21:00 +8°C° 0.8 mm 1 mps 737 mmHg 95%
    22:00 +8°C° 0.6 mm 1 mps 737 mmHg 95%
    23:00 +8°C° 0.6 mm 1 mps 736 mmHg 95%

    21 December, Saturday

    Time Temperature Precipitation Wind Pressure Humidity
    00:00 +7°C° 0.6 mm 2 mps 736 mmHg 95%
    01:00 +7°C° 1.3 mm 2 mps 737 mmHg 95%
    02:00 +7°C° 1.3 mm 3 mps 737 mmHg 95%
    03:00 +7°C° 1.3 mm 3 mps 737 mmHg 95%
    04:00 +6°C° 0.9 mm 4 mps 738 mmHg 94%
    05:00 +6°C° 0.9 mm 4 mps 738 mmHg 94%
    06:00 +6°C° 0.9 mm 4 mps 739 mmHg 94%
    07:00 +6°C° 0.5 mm 4 mps 740 mmHg 93%
    08:00 +6°C° 0.5 mm 5 mps 740 mmHg 93%
    09:00 +6°C° 0.5 mm 5 mps 741 mmHg 92%
    10:00 +7°C° 0.2 mm 5 mps 742 mmHg 90%
    11:00 +7°C° 0.2 mm 5 mps 742 mmHg 87%
    12:00 +7°C° 0.2 mm 5 mps 743 mmHg 85%
    13:00 +7°C° 0 mm 4 mps 744 mmHg 85%
    14:00 +7°C° 0 mm 4 mps 744 mmHg 84%
    15:00 +8°C° 0 mm 3 mps 744 mmHg 84%
    16:00 +7°C° 0 mm 3 mps 745 mmHg 85%
    17:00 +7°C° 0 mm 3 mps 745 mmHg 87%
    18:00 +7°C° 0 mm 3 mps 746 mmHg 88%
    19:00 +7°C° 0 mm 3 mps 746 mmHg 88%
    20:00 +7°C° 0 mm 3 mps 746 mmHg 87%
    21:00 +7°C° 0 mm 3 mps 747 mmHg 87%
    22:00 +7°C° 0 mm 3 mps 747 mmHg 86%
    23:00 +5°C° 0 mm 3 mps 747 mmHg 85%
    Show more